Flag for Nicaragua Weather past 2 weeks in Masaya, Nicaragua

Now
79 °F

Passing clouds.


Feels Like: 81 °F
Forecast: 73 / 88 °F
Wind: 9 mph from East

Location: Managua A. C. Sandino

Current Time: Mar 2, 2015 at 12:13:18 AM

Latest Report: Mar 2, 2015 at 12:00 AM


Visibility: N/A

Pressure: 29.95 "Hg

Humidity: 65%

Dew point: 66 °F

Location of MasayaLocation

Historic Weather in Masaya — Graph

°F

Masaya temperature yesterday

Maximum temperature yesterday: 93 °F (at 2:00 PM)
Minimum temperature yesterday: 72 °F (at 6:00 AM)
Average temperature yesterday: 85 °F

Past Weeks' High & Low Weather Summary

 TemperatureHumidityPressure
High95 °F (Feb 24, 3:00 PM)88% (Feb 17, 6:00 AM)29.98 "Hg (Feb 17, 6:00 AM)
Low70 °F (Feb 15, 3:00 AM)30% (Feb 28, 4:00 PM)29.74 "Hg (Feb 26, 3:00 PM)
Average83 °F58%29.88 "Hg
* Reported Feb 14 10:00 PM — Mar 1 10:00 PM, Masaya, Weather by CustomWeather, © 2015

Note: Actual official high and low records may vary slightly from our data, if they occured in-between our weather recording intervals... More about our weather records

Advertising

Masaya weather history for previous 24 hours

 ConditionsComfort  
Time TempWeatherWind HumidityBarometerVisibility
10:00 PM
Sun, Mar 1
82 °FPassing clouds.12 mph58%29.98 "HgN/A
9:00 PM82 °FPassing clouds.14 mph55%29.95 "HgN/A
7:00 PM86 °FPassing clouds.12 mph43%29.89 "HgN/A
6:00 PM88 °FPassing clouds.9 mph43%29.86 "HgN/A
5:00 PM91 °FPassing clouds.14 mph34%29.86 "HgN/A
4:00 PM91 °FPassing clouds.18 mph36%29.83 "HgN/A
3:00 PM93 °FPassing clouds.14 mph36%29.83 "HgN/A
2:00 PM93 °FScattered clouds.18 mph36%29.86 "HgN/A
1:00 PM91 °FPassing clouds.16 mph38%29.89 "HgN/A
12:00 PM91 °FPassing clouds.18 mph38%29.92 "HgN/A
11:00 AM88 °FPassing clouds.16 mph46%29.95 "HgN/A
10:00 AM90 °FPassing clouds.16 mph43%29.95 "HgN/A
9:00 AM84 °FPassing clouds.12 mph55%29.98 "HgN/A
8:00 AM82 °FPassing clouds.9 mph62%29.95 "HgN/A
7:00 AM75 °FPassing clouds.5 mph78%29.95 "HgN/A
6:00 AM72 °FPassing clouds.No wind83%29.92 "HgN/A
5:00 AM73 °FClear.No wind83%29.89 "Hg10 mi
1:00 AM79 °FClear.12 mph54%29.92 "Hg10 mi
Weather by CustomWeather, © 2015

See weather overviewHow to use our weather pages